BCS2960 EDDP-EINN

Flight info

Callsign BCS2960
Flight time 2h 6m
Altitude 34000
Route PENEM1E PENEM Y233 EMBOX L986 SAS L980 FLEVO L602 BERGI L60 PENIL M144 BAGSO DCT GANET DCT PELIG DCT DIGAN DIGAN2D
Aircraft B738/M-SDE2E3FGHIRWXY/LB1

Departure

Time 2026-05-07 17:07
Airport Leipzig/Halle Airport (EDDP)

Arrival

Time 2026-05-07 19:14
Airport Shannon Airport (EINN)
Time Latitude Longitude Altitude Speed Heading
2026-05-07 16:33 51.40894 12.23883 465 ft 0 kts 85°
2026-05-07 16:53 51.40894 12.23875 465 ft 4 kts 85°
2026-05-07 16:53 51.40892 12.23832 465 ft 4 kts 85°
2026-05-07 16:53 51.40889 12.23790 462 ft 4 kts 69°
2026-05-07 16:54 51.40876 12.23765 465 ft 4 kts 360°
2026-05-07 16:54 51.40855 12.23767 463 ft 4 kts 356°
2026-05-07 16:54 51.40843 12.23768 462 ft 1 kts 356°
2026-05-07 16:57 51.40855 12.23766 464 ft 3 kts 356°
2026-05-07 16:57 51.40875 12.23764 465 ft 3 kts 356°
2026-05-07 16:57 51.40895 12.23762 464 ft 3 kts 356°
2026-05-07 16:57 51.40956 12.23755 466 ft 12 kts 356°
2026-05-07 16:58 51.41036 12.23733 470 ft 11 kts 327°
2026-05-07 16:58 51.41049 12.23614 470 ft 12 kts 263°
2026-05-07 16:58 51.41042 12.23475 468 ft 14 kts 266°
2026-05-07 16:58 51.41035 12.23315 469 ft 15 kts 265°
2026-05-07 16:59 51.41027 12.23141 468 ft 17 kts 265°
2026-05-07 16:59 51.41017 12.22923 462 ft 22 kts 266°
2026-05-07 16:59 51.41005 12.22682 461 ft 21 kts 265°
2026-05-07 16:59 51.40998 12.22532 457 ft 12 kts 265°
2026-05-07 17:00 51.40991 12.22400 457 ft 12 kts 266°
2026-05-07 17:00 51.41039 12.22315 456 ft 12 kts 353°
2026-05-07 17:00 51.41072 12.22215 455 ft 11 kts 264°
2026-05-07 17:00 51.41066 12.22089 455 ft 11 kts 266°
2026-05-07 17:01 51.41060 12.21960 455 ft 12 kts 266°
2026-05-07 17:01 51.41053 12.21815 457 ft 14 kts 265°
2026-05-07 17:01 51.41045 12.21640 455 ft 19 kts 266°
2026-05-07 17:01 51.41033 12.21396 451 ft 25 kts 266°
2026-05-07 17:02 51.41021 12.21126 440 ft 24 kts 265°
2026-05-07 17:02 51.41007 12.20845 439 ft 25 kts 266°
2026-05-07 17:02 51.40997 12.20619 432 ft 16 kts 266°
2026-05-07 17:02 51.41010 12.20507 431 ft 11 kts 313°
2026-05-07 17:03 51.41029 12.20490 432 ft 0 kts 342°
2026-05-07 17:05 51.41061 12.20487 422 ft 10 kts
2026-05-07 17:05 51.41130 12.20514 435 ft 10 kts 22°
2026-05-07 17:05 51.41167 12.20599 430 ft 10 kts 84°
2026-05-07 17:06 51.41167 12.20604 430 ft 0 kts 84°
2026-05-07 17:06 51.41169 12.20629 429 ft 11 kts 85°
2026-05-07 17:06 51.41192 12.21094 445 ft 76 kts 84°
2026-05-07 17:06 51.41247 12.22295 453 ft 136 kts 86°
2026-05-07 17:07 51.41335 12.24066 559 ft 178 kts 86°
2026-05-07 17:07 51.41398 12.26118 1224 ft 188 kts 84°
2026-05-07 17:07 51.41511 12.28139 2286 ft 176 kts 82°
2026-05-07 17:07 51.41628 12.30169 2830 ft 195 kts 83°
2026-05-07 17:08 51.41750 12.32446 3046 ft 217 kts 83°
2026-05-07 17:08 51.41885 12.34953 3350 ft 232 kts 83°
2026-05-07 17:08 51.42041 12.37615 3587 ft 252 kts 80°
2026-05-07 17:08 51.42710 12.40259 4153 ft 257 kts 51°
2026-05-07 17:09 51.44096 12.42016 5023 ft 257 kts 23°
2026-05-07 17:09 51.45821 12.42539 5745 ft 261 kts 356°
2026-05-07 17:09 51.47589 12.41655 6430 ft 268 kts 327°
2026-05-07 17:09 51.48908 12.39560 7142 ft 272 kts 303°
2026-05-07 17:10 51.49823 12.36922 7867 ft 275 kts 297°
2026-05-07 17:10 51.50688 12.34164 8598 ft 278 kts 297°
2026-05-07 17:10 51.51547 12.31386 9335 ft 280 kts 297°
2026-05-07 17:10 51.52423 12.28562 10103 ft 282 kts 297°
2026-05-07 17:11 51.53316 12.25702 10496 ft 297 kts 297°
2026-05-07 17:11 51.54287 12.22612 10667 ft 319 kts 297°
2026-05-07 17:11 51.55309 12.19350 10948 ft 335 kts 295°
2026-05-07 17:11 51.56027 12.15718 11567 ft 340 kts 282°
2026-05-07 17:12 51.56460 12.12023 12288 ft 341 kts 281°
2026-05-07 17:12 51.56880 12.08244 12949 ft 346 kts 281°
2026-05-07 17:12 51.57316 12.04367 13660 ft 350 kts 282°
2026-05-07 17:12 51.57756 12.00561 14337 ft 353 kts 282°
2026-05-07 17:13 51.58216 11.96666 15003 ft 356 kts 282°
2026-05-07 17:13 51.58684 11.92755 15667 ft 359 kts 282°
2026-05-07 17:13 51.59161 11.88787 16325 ft 363 kts 282°
2026-05-07 17:13 51.59645 11.84767 16980 ft 366 kts 282°
2026-05-07 17:14 51.60131 11.80721 17645 ft 370 kts 282°
2026-05-07 17:14 51.60621 11.76641 18289 ft 374 kts 282°
2026-05-07 17:14 51.61115 11.72507 18860 ft 378 kts 282°
2026-05-07 17:14 51.61611 11.68341 19439 ft 380 kts 282°
2026-05-07 17:15 51.62114 11.64164 20005 ft 383 kts 282°
2026-05-07 17:15 51.62642 11.59961 20619 ft 384 kts 282°
2026-05-07 17:15 51.63179 11.55737 21214 ft 386 kts 282°
2026-05-07 17:15 51.63720 11.51486 21721 ft 390 kts 282°
2026-05-07 17:16 51.64254 11.47273 22279 ft 392 kts 282°
2026-05-07 17:16 51.64795 11.42969 22787 ft 396 kts 282°
2026-05-07 17:16 51.65344 11.38585 23268 ft 399 kts 282°
2026-05-07 17:16 51.65889 11.34204 23760 ft 402 kts 282°
2026-05-07 17:17 51.66440 11.29763 24196 ft 405 kts 282°
2026-05-07 17:17 51.66989 11.25319 24658 ft 406 kts 282°
2026-05-07 17:17 51.67540 11.20851 25073 ft 408 kts 282°
2026-05-07 17:17 51.68093 11.16351 25538 ft 409 kts 281°
2026-05-07 17:18 51.68644 11.11853 26055 ft 409 kts 281°
2026-05-07 17:18 51.69194 11.07342 26406 ft 412 kts 281°
2026-05-07 17:18 51.69748 11.02779 26724 ft 416 kts 281°
2026-05-07 17:18 51.70303 10.98191 27144 ft 418 kts 281°
2026-05-07 17:19 51.70857 10.93596 27579 ft 418 kts 281°
2026-05-07 17:19 51.71414 10.88964 27957 ft 421 kts 281°
2026-05-07 17:19 51.71971 10.84321 28293 ft 423 kts 281°
2026-05-07 17:19 51.72526 10.79675 28633 ft 426 kts 281°
2026-05-07 17:20 51.73087 10.74964 28978 ft 428 kts 281°
2026-05-07 17:20 51.73648 10.70239 29278 ft 430 kts 281°
2026-05-07 17:20 51.74212 10.65467 29553 ft 434 kts 281°
2026-05-07 17:20 51.74778 10.60664 29860 ft 436 kts 281°
2026-05-07 17:21 51.75338 10.55882 30171 ft 438 kts 281°
2026-05-07 17:21 51.75905 10.51023 30424 ft 440 kts 281°
2026-05-07 17:21 51.76470 10.46171 30653 ft 442 kts 281°
2026-05-07 17:21 51.77038 10.41271 30943 ft 443 kts 281°
2026-05-07 17:22 51.77601 10.36391 31297 ft 442 kts 281°
2026-05-07 17:22 51.78162 10.31519 31646 ft 441 kts 281°
2026-05-07 17:22 51.78714 10.26700 31931 ft 442 kts 281°
2026-05-07 17:22 51.79270 10.21833 32227 ft 442 kts 281°
2026-05-07 17:23 51.79823 10.16970 32561 ft 441 kts 281°
2026-05-07 17:23 51.80375 10.12100 32876 ft 441 kts 281°
2026-05-07 17:23 51.80925 10.07228 33205 ft 440 kts 281°
2026-05-07 17:23 51.81471 10.02375 33545 ft 439 kts 281°
2026-05-07 17:24 51.82015 9.97519 33795 ft 440 kts 281°
2026-05-07 17:24 51.82558 9.92648 34061 ft 440 kts 281°
2026-05-07 17:24 51.83100 9.87776 34276 ft 441 kts 280°
2026-05-07 17:24 51.83641 9.82892 34596 ft 438 kts 280°
2026-05-07 17:25 51.84174 9.78060 34901 ft 436 kts 280°
2026-05-07 17:25 51.84704 9.73237 35092 ft 437 kts 280°
2026-05-07 17:25 51.86234 9.63663 35411 ft 440 kts 288°
2026-05-07 17:26 51.87243 9.58993 35645 ft 440 kts 289°
2026-05-07 17:26 51.88273 9.54333 35853 ft 440 kts 289°
2026-05-07 17:26 51.89290 9.49652 36047 ft 440 kts 288°
2026-05-07 17:26 51.90284 9.44955 36269 ft 440 kts 288°
2026-05-07 17:27 51.91253 9.40276 36488 ft 439 kts 288°
2026-05-07 17:27 51.92210 9.35595 36671 ft 439 kts 287°
2026-05-07 17:27 51.93169 9.30876 36825 ft 440 kts 287°
2026-05-07 17:27 51.94116 9.26210 37023 ft 440 kts 287°
2026-05-07 17:28 51.95081 9.21450 37232 ft 440 kts 287°
2026-05-07 17:28 51.96033 9.16740 37416 ft 440 kts 287°
2026-05-07 17:28 51.96976 9.12029 37585 ft 440 kts 287°
2026-05-07 17:28 51.97904 9.07362 37764 ft 440 kts 287°
2026-05-07 17:29 51.98842 9.02640 37949 ft 440 kts 287°
2026-05-07 17:29 51.99789 8.97865 38084 ft 440 kts 287°
2026-05-07 17:29 52.01669 8.88353 38087 ft 442 kts 286°
2026-05-07 17:30 52.03522 8.78932 38094 ft 439 kts 286°
2026-05-07 17:30 52.05370 8.69493 38080 ft 437 kts 286°
2026-05-07 17:31 52.07198 8.60109 38084 ft 435 kts 286°
2026-05-07 17:31 52.09013 8.50751 38084 ft 433 kts 286°
2026-05-07 17:32 52.10815 8.41412 38095 ft 433 kts 286°
2026-05-07 17:32 52.12310 8.33630 38096 ft 433 kts 286°
2026-05-07 17:33 52.14399 8.22694 38098 ft 434 kts 286°
2026-05-07 17:33 52.16188 8.13280 38106 ft 437 kts 285°
2026-05-07 17:34 52.17671 8.05437 38107 ft 440 kts 285°
2026-05-07 17:34 52.19476 7.95852 38106 ft 444 kts 285°
2026-05-07 17:35 52.21284 7.86213 38110 ft 446 kts 285°
2026-05-07 17:35 52.23076 7.76600 38087 ft 438 kts 285°
2026-05-07 17:36 52.24827 7.67160 38106 ft 434 kts 285°
2026-05-07 17:36 52.26564 7.57736 38097 ft 433 kts 285°
2026-05-07 17:37 52.28293 7.48316 38084 ft 433 kts 285°
2026-05-07 17:37 52.30016 7.38879 38086 ft 434 kts 285°
2026-05-07 17:38 52.31736 7.29419 38078 ft 435 kts 285°
2026-05-07 17:38 52.33457 7.19898 38072 ft 436 kts 285°
2026-05-07 17:39 52.35166 7.10389 38067 ft 437 kts 285°
2026-05-07 17:39 52.36875 7.00831 38069 ft 438 kts 285°
2026-05-07 17:40 52.38581 6.91248 38072 ft 439 kts 284°
2026-05-07 17:40 52.40270 6.81705 38067 ft 438 kts 284°
2026-05-07 17:41 52.41964 6.72075 38062 ft 438 kts 284°
2026-05-07 17:41 52.43640 6.62497 38062 ft 437 kts 284°
2026-05-07 17:42 52.45298 6.52976 38063 ft 437 kts 284°
2026-05-07 17:42 52.46959 6.43397 38064 ft 437 kts 284°
2026-05-07 17:43 52.48609 6.33821 38064 ft 436 kts 284°
2026-05-07 17:43 52.50251 6.24230 38063 ft 436 kts 284°
2026-05-07 17:44 52.51884 6.14643 38067 ft 437 kts 284°
2026-05-07 17:44 52.53516 6.05012 38070 ft 438 kts 284°
2026-05-07 17:45 52.55139 5.95382 38073 ft 438 kts 284°
2026-05-07 17:45 52.56759 5.85710 38072 ft 439 kts 284°
2026-05-07 17:46 52.58375 5.76025 38065 ft 439 kts 283°
2026-05-07 17:46 52.59982 5.66328 38072 ft 439 kts 283°
2026-05-07 17:47 52.61575 5.56655 38074 ft 439 kts 283°
2026-05-07 17:47 52.63167 5.46935 38082 ft 439 kts 283°
2026-05-07 17:48 52.64747 5.37232 38072 ft 439 kts 283°
2026-05-07 17:48 52.66320 5.27521 38086 ft 439 kts 283°
2026-05-07 17:49 52.67883 5.17817 38085 ft 439 kts 283°
2026-05-07 17:49 52.69441 5.08083 38087 ft 439 kts 283°
2026-05-07 17:50 52.70993 4.98342 38094 ft 439 kts 283°
2026-05-07 17:50 52.72535 4.88596 38092 ft 440 kts 283°
2026-05-07 17:51 52.74060 4.78890 38102 ft 440 kts 283°
2026-05-07 17:51 52.75592 4.69096 38096 ft 440 kts 283°
2026-05-07 17:52 52.77121 4.59265 38079 ft 440 kts 283°
2026-05-07 17:52 52.78635 4.49469 38094 ft 440 kts 283°
2026-05-07 17:53 52.80142 4.39657 38099 ft 440 kts 283°
2026-05-07 17:53 52.81629 4.29912 38089 ft 440 kts 282°
2026-05-07 17:54 52.83115 4.20112 38097 ft 440 kts 282°
2026-05-07 17:54 52.84595 4.10296 38094 ft 440 kts 282°
2026-05-07 17:55 52.86068 4.00464 38096 ft 440 kts 282°
2026-05-07 17:55 52.87532 3.90636 38091 ft 440 kts 282°
2026-05-07 17:56 52.88985 3.80822 38102 ft 440 kts 282°
2026-05-07 17:56 52.90434 3.70970 38094 ft 439 kts 282°
2026-05-07 17:57 52.91629 3.62795 38111 ft 439 kts 282°
2026-05-07 17:57 52.93302 3.51283 38113 ft 439 kts 282°
2026-05-07 17:58 52.94721 3.41449 38106 ft 439 kts 282°
2026-05-07 17:58 52.96136 3.31587 38097 ft 439 kts 282°
2026-05-07 17:59 52.97541 3.21738 38093 ft 439 kts 282°
2026-05-07 17:59 52.99203 3.11961 38097 ft 440 kts 286°
2026-05-07 18:00 53.01082 3.02369 38109 ft 441 kts 286°
2026-05-07 18:00 53.02969 2.92604 38103 ft 441 kts 286°
2026-05-07 18:01 53.04803 2.82877 38097 ft 441 kts 285°
2026-05-07 18:01 53.06623 2.73116 38097 ft 442 kts 285°
2026-05-07 18:02 53.09341 2.58464 38095 ft 442 kts 285°
2026-05-07 18:03 53.10884 2.48584 38097 ft 441 kts 278°
2026-05-07 18:03 53.11832 2.38524 38092 ft 440 kts 276°
2026-05-07 18:04 53.12720 2.28494 38098 ft 440 kts 277°
2026-05-07 18:04 53.13654 2.18422 38094 ft 440 kts 277°
2026-05-07 18:05 53.14611 2.08353 38090 ft 440 kts 277°
2026-05-07 18:05 53.15568 1.98282 38097 ft 440 kts 277°
2026-05-07 18:06 53.16516 1.88220 38089 ft 440 kts 277°
2026-05-07 18:06 53.17454 1.78162 38091 ft 439 kts 277°
2026-05-07 18:07 53.18381 1.68106 38091 ft 438 kts 277°
2026-05-07 18:07 53.19383 1.58080 38087 ft 438 kts 278°
2026-05-07 18:08 53.20435 1.48068 38090 ft 438 kts 278°
2026-05-07 18:08 53.21471 1.38060 38083 ft 438 kts 278°
2026-05-07 18:09 53.22487 1.28052 38088 ft 438 kts 278°
2026-05-07 18:09 53.23491 1.18032 38078 ft 437 kts 277°
2026-05-07 18:10 53.24486 1.08013 38078 ft 437 kts 277°
2026-05-07 18:10 53.25472 0.97985 38084 ft 438 kts 277°
2026-05-07 18:11 53.26451 0.87952 38082 ft 438 kts 277°
2026-05-07 18:11 53.27422 0.77908 38071 ft 438 kts 277°
2026-05-07 18:12 53.28386 0.67845 38076 ft 439 kts 277°
2026-05-07 18:12 53.29343 0.57767 38065 ft 439 kts 277°
2026-05-07 18:13 53.30290 0.47689 38071 ft 439 kts 277°
2026-05-07 18:13 53.31231 0.37584 38057 ft 440 kts 277°
2026-05-07 18:14 53.32163 0.27485 38057 ft 440 kts 277°
2026-05-07 18:14 53.33087 0.17368 38045 ft 439 kts 277°
2026-05-07 18:15 53.34001 0.07283 38050 ft 438 kts 276°
2026-05-07 18:15 53.34902 -0.02776 38048 ft 437 kts 276°
2026-05-07 18:16 53.35787 -0.12764 38054 ft 436 kts 276°
2026-05-07 18:16 53.36669 -0.22811 38047 ft 436 kts 276°
2026-05-07 18:17 53.37543 -0.32845 38051 ft 436 kts 276°
2026-05-07 18:17 53.38408 -0.42894 38049 ft 436 kts 276°
2026-05-07 18:18 53.39263 -0.52940 38042 ft 436 kts 276°
2026-05-07 18:18 53.40112 -0.62988 38046 ft 436 kts 276°
2026-05-07 18:19 53.40952 -0.73065 38040 ft 437 kts 276°
2026-05-07 18:19 53.41785 -0.83149 38034 ft 437 kts 276°
2026-05-07 18:20 53.42611 -0.93254 38041 ft 438 kts 276°
2026-05-07 18:20 53.43429 -1.03395 38044 ft 439 kts 275°
2026-05-07 18:21 53.44235 -1.13471 38027 ft 439 kts 275°
2026-05-07 18:21 53.45039 -1.23624 38030 ft 439 kts 275°
2026-05-07 18:22 53.45832 -1.33769 38031 ft 439 kts 275°
2026-05-07 18:22 53.46491 -1.42286 38021 ft 439 kts 275°
2026-05-07 18:23 53.47270 -1.52441 38026 ft 438 kts 275°
2026-05-07 18:23 53.48036 -1.62577 38012 ft 438 kts 275°
2026-05-07 18:24 53.48796 -1.72716 38019 ft 437 kts 275°
2026-05-07 18:24 53.49544 -1.82819 38024 ft 436 kts 275°
2026-05-07 18:25 53.50276 -1.92862 38012 ft 436 kts 275°
2026-05-07 18:25 53.51005 -2.02958 38021 ft 435 kts 275°
2026-05-07 18:26 53.51726 -2.13031 38016 ft 435 kts 274°
2026-05-07 18:26 53.52437 -2.23118 38013 ft 434 kts 274°
2026-05-07 18:27 53.53137 -2.33187 38008 ft 434 kts 274°
2026-05-07 18:27 53.53830 -2.43271 38009 ft 433 kts 274°
2026-05-07 18:28 53.54512 -2.53322 38007 ft 433 kts 274°
2026-05-07 18:28 53.55186 -2.63372 38018 ft 433 kts 274°
2026-05-07 18:29 53.55853 -2.73435 37996 ft 433 kts 274°
2026-05-07 18:29 53.56509 -2.83488 37998 ft 433 kts 274°
2026-05-07 18:30 53.57157 -2.93535 37993 ft 432 kts 274°
2026-05-07 18:30 53.57797 -3.03588 37997 ft 432 kts 274°
2026-05-07 18:31 53.58428 -3.13635 38011 ft 432 kts 274°
2026-05-07 18:31 53.59050 -3.23693 37998 ft 432 kts 274°
2026-05-07 18:32 53.59665 -3.33748 37991 ft 432 kts 274°
2026-05-07 18:32 53.60266 -3.43736 37991 ft 431 kts 274°
2026-05-07 18:33 53.60863 -3.53782 37991 ft 431 kts 274°
2026-05-07 18:33 53.61452 -3.63834 38002 ft 431 kts 273°
2026-05-07 18:34 53.61958 -3.73887 37990 ft 431 kts 272°
2026-05-07 18:34 53.62361 -3.83955 37991 ft 431 kts 272°
2026-05-07 18:35 53.62779 -3.94014 37987 ft 430 kts 272°
2026-05-07 18:35 53.63183 -4.04082 37990 ft 430 kts 271°
2026-05-07 18:36 53.63571 -4.14138 37990 ft 430 kts 271°
2026-05-07 18:36 53.63947 -4.24193 37981 ft 430 kts 271°
2026-05-07 18:37 53.64315 -4.34251 37984 ft 430 kts 271°
2026-05-07 18:37 53.64670 -4.44296 37976 ft 429 kts 271°
2026-05-07 18:38 53.65016 -4.54332 37981 ft 429 kts 271°
2026-05-07 18:38 53.65357 -4.64377 37979 ft 429 kts 271°
2026-05-07 18:39 53.65691 -4.74426 37973 ft 429 kts 271°
2026-05-07 18:39 53.66016 -4.84468 37969 ft 429 kts 271°
2026-05-07 18:40 53.66347 -4.94505 37969 ft 428 kts 271°
2026-05-07 18:40 53.66677 -5.04525 37964 ft 428 kts 271°
2026-05-07 18:41 53.66996 -5.14544 37965 ft 427 kts 271°
2026-05-07 18:41 53.67144 -5.19410 37944 ft 415 kts 270°
2026-05-07 18:41 53.67284 -5.24183 37871 ft 402 kts 270°
2026-05-07 18:41 53.67417 -5.28872 37333 ft 401 kts 270°
2026-05-07 18:42 53.67550 -5.33632 36510 ft 409 kts 270°
2026-05-07 18:42 53.67683 -5.38422 35969 ft 409 kts 270°
2026-05-07 18:42 53.67816 -5.43188 35628 ft 404 kts 270°
2026-05-07 18:42 53.67791 -5.47864 35303 ft 396 kts 261°
2026-05-07 18:43 53.67345 -5.52394 34953 ft 389 kts 253°
2026-05-07 18:43 53.66507 -5.56704 34573 ft 384 kts 246°
2026-05-07 18:43 53.65525 -5.60858 34223 ft 380 kts 246°
2026-05-07 18:43 53.64536 -5.64980 33856 ft 377 kts 246°
2026-05-07 18:44 53.63557 -5.69063 33435 ft 374 kts 246°
2026-05-07 18:44 53.62590 -5.73110 33002 ft 372 kts 246°
2026-05-07 18:44 53.61630 -5.77141 32586 ft 369 kts 246°
2026-05-07 18:44 53.60680 -5.81142 32173 ft 367 kts 246°
2026-05-07 18:45 53.59731 -5.85143 31661 ft 368 kts 246°
2026-05-07 18:45 53.58788 -5.89111 31295 ft 364 kts 246°
2026-05-07 18:45 53.57854 -5.93044 30926 ft 362 kts 246°
2026-05-07 18:45 53.56923 -5.96957 30574 ft 359 kts 246°
2026-05-07 18:46 53.55997 -6.00842 30223 ft 356 kts 246°
2026-05-07 18:46 53.55079 -6.04685 29852 ft 354 kts 246°
2026-05-07 18:46 53.54163 -6.08511 29471 ft 350 kts 246°
2026-05-07 18:46 53.53258 -6.12288 29130 ft 347 kts 246°
2026-05-07 18:47 53.52359 -6.16034 28769 ft 344 kts 246°
2026-05-07 18:47 53.51468 -6.19740 28411 ft 341 kts 246°
2026-05-07 18:47 53.50582 -6.23417 28075 ft 338 kts 246°
2026-05-07 18:47 53.49699 -6.27076 27717 ft 336 kts 246°
2026-05-07 18:48 53.48824 -6.30695 27375 ft 334 kts 246°
2026-05-07 18:48 53.47944 -6.34287 26997 ft 332 kts 245°
2026-05-07 18:48 53.47021 -6.37846 26489 ft 332 kts 244°
2026-05-07 18:48 53.46082 -6.41385 25945 ft 331 kts 244°
2026-05-07 18:49 53.45146 -6.44897 25452 ft 330 kts 244°
2026-05-07 18:49 53.44214 -6.48397 25005 ft 328 kts 244°
2026-05-07 18:49 53.43285 -6.51888 24671 ft 327 kts 244°
2026-05-07 18:49 53.42367 -6.55345 24358 ft 321 kts 244°
2026-05-07 18:50 53.41463 -6.58752 23903 ft 319 kts 244°
2026-05-07 18:50 53.40567 -6.62126 23515 ft 315 kts 244°
2026-05-07 18:50 53.39693 -6.65412 23146 ft 312 kts 244°
2026-05-07 18:50 53.38814 -6.68714 22791 ft 310 kts 244°
2026-05-07 18:51 53.37935 -6.72012 22495 ft 308 kts 244°
2026-05-07 18:51 53.37062 -6.75283 22150 ft 307 kts 244°
2026-05-07 18:51 53.36194 -6.78531 21843 ft 305 kts 244°
2026-05-07 18:51 53.35331 -6.81757 21539 ft 303 kts 244°
2026-05-07 18:52 53.34470 -6.84973 21212 ft 302 kts 244°
2026-05-07 18:52 53.33613 -6.88165 20908 ft 300 kts 244°
2026-05-07 18:52 53.32758 -6.91346 20590 ft 299 kts 244°
2026-05-07 18:52 53.31906 -6.94514 20284 ft 298 kts 244°
2026-05-07 18:53 53.31056 -6.97668 19974 ft 297 kts 244°
2026-05-07 18:53 53.30209 -7.00811 19668 ft 296 kts 244°
2026-05-07 18:53 53.29361 -7.03947 19363 ft 295 kts 244°
2026-05-07 18:53 53.28515 -7.07075 19061 ft 295 kts 244°
2026-05-07 18:54 53.27670 -7.10196 18758 ft 294 kts 244°
2026-05-07 18:54 53.26831 -7.13290 18460 ft 294 kts 244°
2026-05-07 18:54 53.25989 -7.16391 18145 ft 293 kts 244°
2026-05-07 18:54 53.25145 -7.19494 17823 ft 293 kts 244°
2026-05-07 18:55 53.24305 -7.22581 17504 ft 291 kts 244°
2026-05-07 18:55 53.23469 -7.25651 17199 ft 290 kts 244°
2026-05-07 18:55 53.22633 -7.28713 16875 ft 289 kts 244°
2026-05-07 18:55 53.21801 -7.31754 16583 ft 287 kts 244°
2026-05-07 18:56 53.20973 -7.34778 16280 ft 286 kts 244°
2026-05-07 18:56 53.20149 -7.37781 16023 ft 284 kts 244°
2026-05-07 18:56 53.19326 -7.40777 15720 ft 283 kts 244°
2026-05-07 18:56 53.18505 -7.43760 15412 ft 283 kts 244°
2026-05-07 18:57 53.17686 -7.46731 15117 ft 283 kts 244°
2026-05-07 18:57 53.16866 -7.49706 14816 ft 282 kts 244°
2026-05-07 18:57 53.16047 -7.52675 14520 ft 282 kts 244°
2026-05-07 18:57 53.15227 -7.55641 14214 ft 282 kts 244°
2026-05-07 18:58 53.14406 -7.58610 13921 ft 282 kts 244°
2026-05-07 18:58 53.13597 -7.61530 13629 ft 281 kts 244°
2026-05-07 18:58 53.12776 -7.64490 13282 ft 281 kts 244°
2026-05-07 18:58 53.11956 -7.67442 12978 ft 281 kts 244°
2026-05-07 18:59 53.11137 -7.70390 12660 ft 281 kts 244°
2026-05-07 18:59 53.10318 -7.73332 12354 ft 280 kts 244°
2026-05-07 18:59 53.09498 -7.76275 12039 ft 280 kts 244°
2026-05-07 18:59 53.08678 -7.79211 11750 ft 279 kts 244°
2026-05-07 19:00 53.07863 -7.82128 11447 ft 279 kts 244°
2026-05-07 19:00 53.07047 -7.85045 11156 ft 279 kts 244°
2026-05-07 19:00 53.06235 -7.87944 11035 ft 272 kts 244°
2026-05-07 19:00 53.05425 -7.90832 10596 ft 277 kts 244°
2026-05-07 19:01 53.04611 -7.93731 10285 ft 278 kts 244°
2026-05-07 19:01 53.03793 -7.96643 10056 ft 276 kts 244°
2026-05-07 19:01 53.02986 -7.99510 9865 ft 272 kts 244°
2026-05-07 19:01 53.02199 -8.02303 9684 ft 267 kts 244°
2026-05-07 19:02 53.01398 -8.05141 9298 ft 271 kts 244°
2026-05-07 19:02 53.00592 -8.07997 8933 ft 273 kts 244°
2026-05-07 19:02 52.99784 -8.10855 8625 ft 273 kts 244°
2026-05-07 19:02 52.98986 -8.13678 8322 ft 267 kts 244°
2026-05-07 19:03 52.98206 -8.16430 8047 ft 259 kts 244°
2026-05-07 19:03 52.97452 -8.19084 7969 ft 253 kts 244°
2026-05-07 19:03 52.96696 -8.21740 7553 ft 256 kts 244°
2026-05-07 19:03 52.95946 -8.24374 7218 ft 250 kts 244°
2026-05-07 19:04 52.95211 -8.26953 6943 ft 244 kts 244°
2026-05-07 19:04 52.94491 -8.29476 6669 ft 240 kts 244°
2026-05-07 19:04 52.93777 -8.31977 6441 ft 240 kts 244°
2026-05-07 19:04 52.93057 -8.34493 6177 ft 242 kts 244°
2026-05-07 19:05 52.92335 -8.37016 5911 ft 243 kts 244°
2026-05-07 19:05 52.91610 -8.39549 5651 ft 244 kts 244°
2026-05-07 19:05 52.90885 -8.42077 5519 ft 240 kts 244°
2026-05-07 19:05 52.90183 -8.44526 5461 ft 232 kts 244°
2026-05-07 19:06 52.89500 -8.46908 5401 ft 226 kts 244°
2026-05-07 19:06 52.88167 -8.51541 5075 ft 222 kts 244°
2026-05-07 19:06 52.87503 -8.53843 4880 ft 221 kts 244°
2026-05-07 19:07 52.86851 -8.56104 4824 ft 214 kts 244°
2026-05-07 19:07 52.86189 -8.58233 4774 ft 201 kts 237°
2026-05-07 19:07 52.85420 -8.60098 4683 ft 197 kts 234°
2026-05-07 19:07 52.84589 -8.61919 4443 ft 199 kts 232°
2026-05-07 19:08 52.83741 -8.63725 4173 ft 198 kts 232°
2026-05-07 19:08 52.82904 -8.65499 3908 ft 194 kts 232°
2026-05-07 19:08 52.82077 -8.67249 3643 ft 190 kts 232°
2026-05-07 19:08 52.81278 -8.68942 3387 ft 183 kts 232°
2026-05-07 19:09 52.80519 -8.70550 3146 ft 177 kts 233°
2026-05-07 19:09 52.79768 -8.72143 2901 ft 170 kts 233°
2026-05-07 19:09 52.79291 -8.73155 2744 ft 167 kts 233°
2026-05-07 19:09 52.78380 -8.75088 2459 ft 153 kts 233°
2026-05-07 19:10 52.77768 -8.76385 2289 ft 134 kts 233°
2026-05-07 19:10 52.77221 -8.77547 2087 ft 124 kts 233°
2026-05-07 19:10 52.76693 -8.78669 1923 ft 124 kts 233°
2026-05-07 19:10 52.76336 -8.79448 1839 ft 126 kts 234°
2026-05-07 19:11 52.75767 -8.80571 1678 ft 129 kts 232°
2026-05-07 19:11 52.75220 -8.81762 1504 ft 132 kts 238°
2026-05-07 19:11 52.74669 -8.82978 1368 ft 134 kts 233°
2026-05-07 19:11 52.74085 -8.84203 1102 ft 137 kts 231°
2026-05-07 19:12 52.73507 -8.85439 872 ft 135 kts 234°
2026-05-07 19:12 52.72952 -8.86665 703 ft 130 kts 234°
2026-05-07 19:12 52.72389 -8.87822 472 ft 129 kts 232°
2026-05-07 19:12 52.71851 -8.88965 290 ft 126 kts 232°
2026-05-07 19:13 52.71316 -8.90091 157 ft 128 kts 231°
2026-05-07 19:13 52.70778 -8.91244 36 ft 126 kts 233°
2026-05-07 19:13 52.70297 -8.92273 17 ft 100 kts 232°
2026-05-07 19:13 52.69961 -8.92984 22 ft 58 kts 232°
2026-05-07 19:14 52.69760 -8.93407 24 ft 44 kts 232°
2026-05-07 19:14 52.69610 -8.93727 28 ft 23 kts 232°
2026-05-07 19:14 52.69537 -8.93931 29 ft 10 kts 234°
2026-05-07 19:14 52.69515 -8.93915 30 ft 5 kts 74°
2026-05-07 19:15 52.69548 -8.93860 29 ft 9 kts 59°
2026-05-07 19:15 52.69611 -8.93728 28 ft 18 kts 51°
2026-05-07 19:15 52.69686 -8.93567 24 ft 17 kts 52°
2026-05-07 19:15 52.69759 -8.93411 26 ft 17 kts 52°
2026-05-07 19:16 52.69851 -8.93217 27 ft 23 kts 52°
2026-05-07 19:16 52.69919 -8.92994 23 ft 22 kts 103°
2026-05-07 19:16 52.69817 -8.92810 21 ft 22 kts 137°
2026-05-07 19:16 52.69721 -8.92654 21 ft 0 kts 135°
2026-05-07 19:17 52.69695 -8.92612 21 ft 11 kts 135°
2026-05-07 19:17 52.69640 -8.92525 21 ft 11 kts 136°
2026-05-07 19:18 52.69586 -8.92439 21 ft 11 kts 136°
2026-05-07 19:18 52.69530 -8.92336 21 ft 13 kts 125°
2026-05-07 19:18 52.69490 -8.92200 21 ft 13 kts 110°
2026-05-07 19:18 52.69466 -8.92055 21 ft 14 kts 102°
2026-05-07 19:19 52.69442 -8.91893 22 ft 15 kts 109°
2026-05-07 19:19 52.69375 -8.91772 19 ft 16 kts 179°
2026-05-07 19:19 52.69303 -8.91700 19 ft 7 kts 138°
2026-05-07 19:19 52.69260 -8.91662 19 ft 8 kts 195°
2026-05-07 19:20 52.69226 -8.91708 20 ft 0 kts 222°